Content
SEND FEEDBACK

Daily
Averages
Monthly
Summary
United States of America

BIG WATER, UTAH


Home > North America > United States > Utah
Elevation: 4166 feet     Latitude: 37 05N     Longitude: 111 40W

WEATHER
 
SELECT A DAY
Number of Records: 194,915;   Date Range: 1/1/95 - 9/18/14
 
SHARE

PRINT THIS DATA

[ ← Previous Day ]
WEATHER ALMANAC - JANUARY 3, 2014
[ Next Day → ]
[ °C ]   °F
Weather ElementAverageHighLow
Temperature36 °F46 °F (2:53 pm)28 °F (6:53 am)
Dewpoint22 °F24.1 °F (12:53 pm)19.9 °F (5:53 am)
Humidity58 %72 % (6:53 am)42 % (2:53 pm)
Barometer30.07 in30.20 in (1:53 am)29.92 in (11:53 pm)
Wind Speed1.9 mph4.6 mph (10:53 am)
Weather ElementAverage
Visibility9.2 mi
Wind DirectionE (85.7 °)

Weather ElementTotal
Precipitation---
Heating Degree Days28 (Base 65)
Averaged from 23 records on January 3, 2014
WEATHER CONDITIONS BREAKOUT
WIND DIRECTION BREAKOUT
WEATHER BY HOUR - JANUARY 3, 2014
[ °C ]   °F
Local TimeTemperatureDewpointHumidityBarometerVisibilityWind DirectionWind SpeedGust SpeedPrecipitationEventsConditions
1:53 AM32.0 °F21.0 °F64 %30.20 in7.0 miSW (230°)3.5 mphClear
2:53 AM30.9 °F21.0 °F67 %30.19 in10.0 miCalmClear
3:53 AM30.0 °F21.0 °F69 %30.19 in10.0 miCalmClear
4:53 AM30.0 °F21.0 °F69 %30.18 in9.0 miCalmClear
5:53 AM28.9 °F19.9 °F69 %30.17 in10.0 miWest (260°)3.5 mphClear
6:53 AM28.0 °F19.9 °F72 %30.18 in6.0 miCalmHaze
7:53 AM28.0 °F19.9 °F72 %30.19 in7.0 miCalmClear
8:53 AM32.0 °F21.9 °F66 %30.18 in8.0 miCalmClear
9:53 AM35.1 °F21.0 °F57 %30.17 in10.0 miCalmClear
10:53 AM37.9 °F23.0 °F55 %30.15 in10.0 miVariable4.6 mphClear
11:53 AM39.0 °F23.0 °F53 %30.12 in10.0 miWest (270°)3.5 mphClear
12:53 PM42.1 °F24.1 °F49 %30.06 in10.0 miWest (270°)4.6 mphClear
1:53 PM45.0 °F24.1 °F44 %30.02 in10.0 miCalmClear
2:53 PM46.0 °F24.1 °F42 %29.99 in10.0 miNNE (30°)4.6 mphClear
3:53 PM46.0 °F24.1 °F42 %29.96 in10.0 miNE (50°)4.6 mphClear
4:53 PM44.1 °F24.1 °F45 %29.96 in10.0 miNNE (30°)3.5 mphClear
5:53 PM39.9 °F23.0 °F51 %29.96 in10.0 miSW (220°)3.5 mphClear
6:53 PM37.9 °F23.0 °F55 %29.97 in10.0 miCalmClear
7:53 PM37.9 °F23.0 °F55 %29.96 in10.0 miCalmClear
8:53 PM35.1 °F23.0 °F61 %29.96 in10.0 miCalmClear
9:53 PM34.0 °F21.0 °F59 %29.96 in6.0 miNNW (340°)3.5 mphHaze
10:53 PM34.0 °F19.9 °F56 %29.93 in10.0 miCalmClear
11:53 PM33.1 °F21.0 °F61 %29.92 in8.0 miWest (270°)3.5 mphClear
Hourly data recorded from KPGA, located miles away from Big Water, Utah







STORIES FROM OUR PARTNERS